Regional Weather Roundup
Issued by NWS

Home | Current Version | Previous Version | Graphics & Text | Print | Product List | Glossary On
Versions: 1 2 3 4 5 6 7 8 9 10 11 12 13 14 15 16 17 18 19 20 21 22 23 24 25 26 27 28 29 30 31 32 33 34 35 36 37 38 39 40 41 42 43 44 45 46 47 48 49 50
093
ASUS45 KBOU 232010
RWRCO

WEATHER ROUNDUP FOR COLORADO
NATIONAL WEATHER SERVICE DENVER/BOULDER CO
100 PM MST THU NOV 23 2017

NOTE: "FAIR" INDICATES FEW OR NO CLOUDS BELOW 12000 FEET WITH NO
SIGNIFICANT WEATHER AND/OR OBSTRUCTIONS TO VISIBILITY.

COZ001>005-013-030-031-232100-
...NORTHWEST COLORADO...

CITY           SKY/WX    TMP DP  RH WIND       PRES   REMARKS
CRAIG          FAIR      57  36  45 CALM      30.26F
HAYDEN         FAIR      57  36  45 CALM      30.28F
MEEKER         FAIR      60  37  42 SE3       30.27F
RABBIT EARS PA FAIR      36  34  93 W6        30.40F
STEAMBOAT SPGS FAIR      51  37  57 CALM      30.29F
WALDEN         FAIR      50  32  50 S16       30.28F
$$

COZ006>008-011-232100-
...WEST CENTRAL VALLEYS...

CITY           SKY/WX    TMP DP  RH WIND       PRES   REMARKS
GRAND JUNCTION FAIR      57  36  45 VRB3      30.28F
MONTROSE       FAIR      57  34  41 CALM      30.31F
EAGLE          FAIR      45  34  65 CALM      30.34F
RIFLE          FAIR      53  37  54 CALM      30.30F
DELTA          FAIR      58  34  40 CALM      30.30F
NUCLA          FAIR      55  30  38 CALM      30.35F
$$

COZ017>023-064>068-232100-
...SOUTHWEST COLORADO...

CITY           SKY/WX    TMP DP  RH WIND       PRES   REMARKS
DURANGO        FAIR      57  28  33 CALM      30.30F
CORTEZ         FAIR      60  31  33 S9        30.30F
PAGOSA SPRINGS FAIR      57  26  30 S5        30.34F
TELLURIDE      FAIR      57  13  17 W13       30.42F
WOLF CREEK PAS FAIR      43  12  28 CALM      30.58F
$$

COZ009-010-012-014-032>034-037-058>063-232100-
...CENTRAL COLORADO...

CITY           SKY/WX    TMP DP  RH WIND       PRES   REMARKS
ASPEN          FAIR      54  33  45 NW5       30.33F
BUENA VISTA    FAIR      56  24  29 CALM      30.30F
COPPER MTN     NOT AVBL
BERTHOUD PASS  FAIR      27  14  59 NW36G51   30.43S WCI   9
COTTONWOOD PAS FAIR      57   9  14 W15G25    30.39F
GUNNISON       FAIR      48  32  53 CALM      30.38F
KREMMLING      FAIR      57  36  44 CALM      30.32F
LEADVILLE      FAIR      45  18  34 NW8       30.39S
MONARCH PASS   FAIR      37  21  52 SW26      30.60F
SALIDA         FAIR      59  25  26 NW9       30.35F
SUNLIGHT       FAIR      43  28  56 SW5       30.49F
WILKERSON PASS FAIR      43  10  26 W10G18    30.46F
$$

COZ069>075-232100-
...SAN LUIS VALLEY/SANGRE DE CRISTO MOUNTAINS...

CITY           SKY/WX    TMP DP  RH WIND       PRES   REMARKS
ALAMOSA        FAIR      55  30  38 VRB5      30.32F
DEL NORTE      FAIR      51  29  43 NE5       30.35F
LA VETA PASS   FAIR      46  23  39 SW26        N/A
SAGUACHE       FAIR      52  30  43 S3        30.35F
$$

COZ035-036-038>040-232100-
...NORTHERN COLORADO FRONT RANGE...

CITY           SKY/WX    TMP DP  RH WIND       PRES   REMARKS
DENVER INTL AP PTSUNNY   71  22  15 W13       30.07F
DMNS CITY PARK   N/A     69  20  15 W5G25     30.07F
AURORA         PTSUNNY   70  22  16 W14       30.09F
FRONT RANGE AP PTSUNNY   77  27  15 W13       30.09F
ERIE MUNI ARPT FAIR      71  24  17 W7        30.11F
BOULDER MUN AP FAIR      68  25  19 SW10      30.06F
CENTENNIAL     PTSUNNY   68  23  18 SW6       30.10F
BROOMFIELD     CLOUDY    66  25  20 W20G29    30.09F
FORT COLLINS   FAIR      70  35  27 S9        30.05F
LONGMONT       NOT AVBL
$$

COZ041-046-047-076>085-087-088-232100-
...PIKES PEAK/PALMER DIVIDE AND SOUTHERN FOOTHILLS...

CITY           SKY/WX    TMP DP  RH WIND       PRES   REMARKS
COLO. SPRINGS  PTSUNNY   64  31  28 S6        30.15F
A. F. ACADEMY  FAIR      64  28  25 S7        30.15F
SCHRIEVER AFB  FAIR      64  28  25 S3        30.15F
CHEYENNE MTN   FAIR      60  30  32 E6        30.13F
ELLICOTT         N/A    N/A N/A N/A W5        30.14F
FALCON         FAIR      65  24  21 SW6       30.18F
FORT CARSON    FAIR      65  29  26 E5        30.12F
LIMON          FAIR      69  30  23 VRB7      30.09F
MONUMENT HILL  FAIR      63  21  20 CALM      30.19F
CANON CITY     FAIR      72  30  21 W14       30.11F
WALSENBURG     FAIR      73  25  16 NW15      30.15F
TRINIDAD       FAIR      67  35  30 S7        30.15F
$$

COZ042>045-048>051-090-091-232100-
...NORTHEAST COLORADO...

CITY           SKY/WX    TMP DP  RH WIND       PRES   REMARKS
GREELEY ARPT   FAIR      69  35  28 S7        30.04F
AKRON          FAIR      70  28  21 W13G21    30.04F
BURLINGTON     FAIR      71  38  29 W16       30.05F
WRAY           NOT AVBL
YUMA           FAIR      70  32  24 W13G18    30.02F
STERLING       FAIR      68  39  34 S7        29.99F
HOLYOKE        FAIR      73  34  23 W14G20    29.98F
FORT MORGAN    FAIR      69  31  24 SW7       30.04F
$$

COZ086-089-092>099-232100-
...SOUTHEAST COLORADO...

CITY           SKY/WX    TMP DP  RH WIND       PRES   REMARKS
PUEBLO         FAIR      73  29  19 SW12      30.07F
LA JUNTA       FAIR      70  37  29 S6        30.08F
LAMAR          FAIR      72  35  25 VRB5      30.05F
SPRINGFIELD      N/A     69  36  29 SW9       30.09F
$$




USA.gov is the U.S. government's official web portal to all federal, state and local government web resources and services.